Change the Weather History Date:

Tuesday, October 9, 2012

  Actual Average Record
Temperature  
Mean Temperature 56 °F 60 °F  
Max Temperature 72 °F 75 °F 85 °F (2013)
Min Temperature 40 °F 45 °F 28 °F (2000)
Degree Days  
Heating Degree Days 9 7  
Month to date heating degree days 96 48  
Since 1 July heating degree days 118 91  
Cooling Degree Days 0 1  
Month to date cooling degree days 1 18  
Year to date cooling degree days 1906 1472  
Growing Degree Days 5 (Base 50)    
Moisture  
Dew Point 35 °F    
Average Humidity 52    
Maximum Humidity 86    
Minimum Humidity 18    
Precipitation  
Precipitation 0.00 in 0.05 in 1.61 in (2014)
Month to date precipitation T 0.55  
Year to date precipitation 10.58 17.11  
Snow  
Snow 0.00 in - - ()
Month to date snowfall 0.0  
Since 1 July snowfall 0.0  
Since 1 September snowfall 0.0  
Snow Depth 0.00 in    
Sea Level Pressure  
Sea Level Pressure 29.89 in    
Wind  
Wind Speed 12 mph (North)    
Max Wind Speed 25 mph    
Max Gust Speed 31 mph    
Visibility 10 miles    
Events      
T = Trace of Precipitation, MM = Missing Value Source: NWS Daily Summary

Daily Weather History Graph

Daily Weather History Graph

Search for Another Location

Airport or City:

Trip Planner

Search our weather history database for the weather conditions in past years. The results will help you decide how hot, cold, wet, or windy it might be!

Date:

Astronomy

Oct. 09, 2012 Rise Set
Actual Time 7:48 AM CDT 7:17 PM CDT
Civil Twilight 7:22 AM CDT 7:42 PM CDT
Nautical Twilight 6:52 AM CDT 8:12 PM CDT
Astronomical Twilight 6:22 AM CDT 8:42 PM CDT
Moon 1:36 AM CDT (10/9) 3:37 PM CDT (10/9)
Length of Visible Light 12h 20m
Length of Day
11h 28m
Last Quarter, 36% of the Moon is Illuminated
Oct 9
Last Quarter
Oct 15
New
Oct 21
First Quarter
Oct 29
Full
Nov 6
Last Quarter

Hourly Weather History & Observations

Time (CDT) Temp. Windchill Dew Point Humidity Pressure Visibility Wind Dir Wind Speed Gust Speed Precip Events Conditions
12:53 AM 51.1 °F - 39.0 °F 63% 29.77 in 10.0 mi South 8.1 mph - N/A   Clear
1:53 AM 48.0 °F - 39.9 °F 74% 29.76 in 10.0 mi SW 8.1 mph - N/A   Clear
3:53 AM 41.0 °F 36.4 °F 37.0 °F 86% 29.75 in 10.0 mi SSW 6.9 mph - N/A   Clear
4:53 AM 44.1 °F 41.5 °F 34.0 °F 68% 29.73 in 10.0 mi SW 4.6 mph - N/A   Clear
5:53 AM 42.1 °F 38.4 °F 33.1 °F 70% 29.74 in 10.0 mi SSW 5.8 mph - N/A   Clear
6:53 AM 46.9 °F - 28.9 °F 50% 29.75 in 10.0 mi West 10.4 mph - N/A   Clear
7:53 AM 51.1 °F - 27.0 °F 39% 29.77 in 10.0 mi West 11.5 mph - N/A   Clear
8:53 AM 54.0 °F - 28.0 °F 37% 29.78 in 10.0 mi West 12.7 mph - N/A   Clear
9:53 AM 60.1 °F - 30.0 °F 32% 29.79 in 10.0 mi West 9.2 mph - N/A   Clear
10:53 AM 69.1 °F - 30.9 °F 24% 29.82 in 10.0 mi NE 11.5 mph - N/A   Clear
11:53 AM 69.1 °F - 24.1 °F 18% 29.84 in 10.0 mi North 18.4 mph 27.6 mph N/A   Clear
12:53 PM 66.0 °F - 33.1 °F 29% 29.87 in 10.0 mi North 24.2 mph 29.9 mph N/A   Clear
1:53 PM 66.9 °F - 37.0 °F 33% 29.88 in 10.0 mi North 21.9 mph - N/A   Clear
2:53 PM 68.0 °F - 39.9 °F 36% 29.90 in 10.0 mi North 19.6 mph 28.8 mph N/A   Clear
3:53 PM 68.0 °F - 39.0 °F 35% 29.92 in 10.0 mi NNE 19.6 mph 27.6 mph N/A   Clear
4:53 PM 66.0 °F - 39.0 °F 37% 29.93 in 10.0 mi NE 19.6 mph 29.9 mph N/A   Clear
5:53 PM 64.0 °F - 39.9 °F 41% 29.96 in 10.0 mi NE 18.4 mph 25.3 mph N/A   Clear
6:53 PM 60.1 °F - 39.9 °F 47% 29.99 in 10.0 mi NE 13.8 mph 21.9 mph N/A   Clear
7:53 PM 55.9 °F - 39.9 °F 55% 30.03 in 10.0 mi NE 9.2 mph - N/A   Clear
8:53 PM 52.0 °F - 39.0 °F 61% 30.06 in 10.0 mi NNE 11.5 mph - N/A   Clear
9:53 PM 50.0 °F - 39.0 °F 66% 30.10 in 10.0 mi NNE 11.5 mph - N/A   Clear
10:53 PM 48.9 °F - 37.9 °F 66% 30.11 in 10.0 mi NE 9.2 mph - N/A   Clear
11:53 PM 46.0 °F 43.9 °F 37.0 °F 71% 30.15 in 10.0 mi NNE 4.6 mph - N/A   Clear